Cloud_Cover
19 97 100 100 75 72 100 93 58 100 53 97 98 99 98 33 26 74 79 93 99 97 20 65 93 53 71 66 100 94 100 100 100 100 100 98 53 92 99 97 100 100 100 89 98 100 90 97 100 100 100 100 100 100
91 100 100 100 100 88 77 100 93 16 8 100 77 20 72 99 100 100 94 93 100 100 59 12 99 100 89 31 91 86 100 100 100 100 100 100 100 99 96 100 100 95 100 100 100 99 100 100 100 100 100 100 100 100
100 100 100 97 16 10 85 57 100 88 100 100 70 100 100 43 8 28 98 91 100 100 99 82 5 68 75 86 90 100 68 82 98 100 100 100 100 100 100 100 7 99 100 98 100 100 100 100 100 100 100 100 100 100
20 14 6 52 43 56 88 99 100 100 100 100 100 100 100 16 26 36 68 73 100 100 100 35 3 4 5 5 57 100 100 100 100 100 100 100 100 100 92 100 100 100 100 100 100 100 100 100 100 100 100 100 100 100
45 5 5 61 9 83 42 97 14 68 39 70 65 98 100 6 10 100 96 8 56 97 100 100 23 5 5 6 66 49 96 100 100 100 100 100 100 100 100 100 100 100 100 100 98 100 100 100 100 100 100 100 100 100
100 100 99 88 18 98 8 95 46 64 100 100 85 100 100 85 97 100 99 80 100 100 100 82 56 5 18 86 70 100 100 100 100 100 100 100 100 100 100 100 100 100 100 100 100 100 100 100 100 100 100 100 100 100
100 96 55 67 30 70 5 33 100 100 100 100 100 100 100 100 88 100 99 100 100 100 100 95 28 69 100 96 100 100 100 100 100 100 100 100 100 100 100 100 100 100 100 100 100 100 100 100 100 100 100 100 100 100
100 80 52 100 36 33 32 100 71 91 72 100 92 97 100 95 100 100 100 100 100 100 100 96 30 5 71 93 96 100 100 100 100 100 100 100 100 100 100 100 100 100 100 100 100 100 100 100 100 100 100 100 100 100
100 65 52 8 74 55 80 91 95 85 88 100 96 100 91 99 100 100 98 100 100 100 100 94 87 52 5 52 96 90 100 100 100 100 100 100 100 100 100 100 100 100 100 100 96 100 100 100 100 100 100 100 100 100
84 66 98 5 89 67 94 95 24 91 100 63 71 100 94 100 100 100 98 99 99 92 98 87 87 49 19 6 50 45 90 100 100 100 100 100 100 100 100 100 100 100 100 100 100 100 100 99 100 100 100 100 100 100
61 100 25 96 51 96 100 76 25 99 96 99 100 100 100 100 100 93 94 90 92 94 77 99 80 92 79 84 100 88 83 82 100 100 100 100 100 100 100 100 100 100 100 100 100 100 100 100 100 100 100 100 100 100
65 33 77 66 100 55 98 87 69 100 100 100 100 100 100 84 51 40 77 39 56 88 80 85 82 74 95 68 93 89 83 86 99 99 100 100 100 100 100 100 100 100 100 100 100 100 100 100 100 100 100 100 100 100
76 33 90 100 97 100 93 63 98 84 100 100 100 99 91 56 40 41 70 78 100 100 99 100 92 75 87 65 81 93 88 87 68 98 100 100 100 100 100 100 100 100 100 100 100 100 100 100 100 100 100 100 100 100
100 100 88 100 95 92 54 17 71 100 100 100 99 93 90 97 94 100 100 100 100 100 100 100 100 94 88 81 72 98 82 74 89 97 100 100 100 100 100 100 100 100 100 100 100 100 100 100 100 100 100 100 100 100
100 100 100 97 100 89 50 96 100 100 100 100 100 98 97 100 100 100 100 100 100 95 97 100 93 85 96 90 71 89 96 98 97 100 100 100 100 100 100 100 100 100 100 100 100 100 100 100 100 99 100 100 100 100
100 100 78 99 100 100 96 100 100 100 100 99 99 100 90 100 98 95 96 93 77 85 98 100 98 94 84 74 87 100 100 100 100 100 100 100 100 100 100 100 100 100 100 100 100 100 99 100 100 100 100 100 99 100
100 100 100 100 100 100 100 100 100 100 100 98 97 98 99 86 99 86 82 89 63 100 100 100 100 100 100 99 98 100 100 100 100 100 100 100 100 100 100 100 100 100 100 100 100 100 100 93 85 100 100 100 94 77
100 100 100 100 100 100 100 100 100 88 85 90 100 96 58 81 54 44 82 77 94 83 96 100 100 100 100 100 100 100 100 100 100 100 100 100 100 100 100 85 86 80 72 96 100 100 100 100 100 100 100 100 90 83
100 100 100 100 100 100 100 99 100 99 92 93 100 85 77 84 100 88 18 46 100 92 100 93 100 100 100 100 100 100 100 100 100 100 100 100 100 100 100 100 97 82 99 95 96 91 95 100 100 100 100 100 100 100
100 100 100 100 100 100 95 100 100 100 100 92 49 64 82 92 28 22 5 5 59 86 96 98 95 100 100 100 100 100 100 100 100 100 100 100 100 100 100 100 89 85 92 76 73 99 94 97 99 99 100 100 100 100
100 100 100 100 100 100 100 100 100 98 98 58 76 89 93 22 5 5 5 5 72 88 99 98 100 100 100 100 100 100 100 100 100 100 100 100 100 100 100 100 100 100 89 90 98 79 97 73 100 98 19 33 91 100
100 100 100 100 100 100 100 99 86 67 65 79 56 6 9 40 69 55 10 6 70 100 64 85 100 100 100 100 100 100 100 100 100 100 100 100 100 100 100 100 100 100 100 84 80 95 35 20 74 95 5 43 27 10
100 100 100 100 100 100 98 5 9 22 30 82 5 11 24 73 34 5 52 61 73 99 80 84 95 99 100 100 100 94 94 97 98 100 96 90 86 71 63 45 81 63 28 20 5 26 5 88 50 99 5 6 5 5
100 100 100 100 100 73 5 5 5 5 5 5 5 26 54 87 22 5 90 100 97 100 81 97 66 73 79 87 100 97 97 82 85 96 77 57 57 51 50 45 94 18 18 5 5 5 5 5 63 25 5 5 5 5
100 100 100 100 42 5 5 5 5 5 5 44 5 20 41 39 5 15 57 99 99 87 66 5 51 75 79 65 53 66 69 58 63 58 36 37 32 16 15 5 5 5 5 5 5 7 5 5 5 5 5 5 35 58
100 80 15 5 6 4 43 6 14 5 19 5 9 5 5 8 5 9 41 83 74 72 69 63 66 26 7 43 54 40 20 5 21 63 12 5 10 74 66 68 5 8 5 5 15 70 91 25 48 62 66 21 54 60
17 4 5 2 5 5 5 5 5 5 5 5 5 5 5 5 5 5 63 24 61 68 6 5 5 6 30 26 10 6 5 8 28 11 5 5 5 5 11 31 22 5 5 7 64 100 100 100 100 86 74 35 5 5
5 5 0 5 5 5 7 5 5 5 5 5 18 5 5 5 5 49 70 72 12 5 5 5 5 5 7 5 5 5 7 5 5 5 5 5 5 5 26 5 21 49 100 98 98 100 100 100 100 100 100 100 100 100
5 5 4 43 5 5 5 5 5 5 5 5 5 5 5 5 5 5 64 5 5 8 52 12 5 5 5 5 5 7 11 53 5 5 5 5 5 5 5 5 5 5 60 61 65 99 100 100 100 100 100 94 58 11
5 5 5 27 5 5 5 49 5 5 9 5 5 5 10 29 46 5 6 32 6 30 29 10 47 98 92 99 27 8 5 5 5 5 5 5 5 5 5 44 45 88 99 96 97 72 76 76 66 52 56 5 5 8
5 5 5 5 33 32 9 5 5 5 5 5 5 40 42 49 5 5 5 5 5 5 53 65 12 48 98 82 99 100 46 5 6 5 34 59 68 70 36 59 78 100 96 100 100 100 100 97 95 90 90 90 56 97
5 5 5 36 17 36 7 5 9 6 5 14 51 47 58 8 5 5 5 5 5 5 60 37 78 36 5 6 21 26 69 50 12 6 57 74 28 16 11 82 100 100 100 91 96 100 100 100 100 100 100 100 55 5
6 5 5 6 33 8 5 5 6 5 53 76 96 44 8 12 5 5 5 5 5 5 5 18 5 5 5 34 16 31 27 7 92 84 100 100 100 100 100 100 100 100 98 100 100 100 100 100 100 100 96 88 68 16